Regional Weather Roundup
Issued by NWS

Home | Current Version | Previous Version | Text Only | Print | Product List | Glossary Off
Versions: 1 2 3 4 5 6 7 8 9 10 11 12 13 14 15 16 17 18 19 20 21 22 23 24 25 26 27 28 29 30 31 32 33 34 35 36 37 38 39 40 41 42 43 44 45 46 47 48 49 50

000
ASUS43 KDTX 240510
RWRMI
MICHIGAN HOURLY REGIONAL WEATHER ROUNDUP
NATIONAL WEATHER SERVICE DETROIT/PONTIAC MI
100 AM EDT TUE APR 24 2018

NOTE: "FAIR" INDICATES FEW OR NO CLOUDS BELOW 12,000 FEET WITH NO
SIGNIFICANT WEATHER AND/OR OBSTRUCTION TO VISIBILITY.

MIZ047>049-052>055-059>063-066>070-074>076-081>083-240600-
SOUTHEAST LOWER MICHIGAN

CITY           SKY/WX    TMP DP  RH WIND       PRES   REMARKS
ADRIAN         CLOUDY    53  46  77 SW5       30.16F
ALMA           FAIR      57  51  80 CALM      30.14S
ANN ARBOR      CLOUDY    54  46  74 S3        30.16F
BAD AXE        FAIR      52  35  52 CALM      30.15F
CARO           FAIR      57  40  53 S5        30.15R
DETROIT CITY   CLOUDY    57  44  62 SW7       30.16F
DETROIT        CLOUDY    55  43  63 S6        30.16F
FLINT          FAIR      56  45  66 SW5       30.15S
GROSSE ILE     MOCLDY    49  45  84 CALM      30.15F
HILLSDALE      DRIZZLE   50  45  81 SE5       30.14F
HOWELL         FAIR      56  44  64 S8        30.15S

CITY           SKY/WX    TMP DP  RH WIND       PRES   REMARKS
JACKSON        CLOUDY    55  45  68 SE9       30.15F
LAMBERTVILLE   CLOUDY    55  45  69 CALM      30.15S
LANSING        MOCLDY    57  47  69 S10       30.15S
LAPEER         FAIR      55  43  63 CALM      30.16S
MASON          CLOUDY    56  43  61 CALM      30.15S
MONROE         CLOUDY    53  46  77 CALM      30.14F
PONTIAC        MOCLDY    57  45  64 S5        30.15F
PORT HOPE        N/A     51  36  56 S3        30.14S
PORT HURON     FAIR      52  41  66 CALM      30.17F
TRI CITIES     FAIR      46  40  79 NE3       30.15S
MIDLAND        FAIR      47  37  68 CALM      30.14S
TROY           FAIR      58  43  57 CALM      30.18S
SAGINAW HB     FAIR      46  41  81 CALM      30.14S
$$
MIZ043>046-050>051-056>058-064>065-071>073-077>080-240600-
SOUTHWEST LOWER MICHIGAN

CITY           SKY/WX    TMP DP  RH WIND       PRES   REMARKS
BATTLE CREEK   CLOUDY    55  45  68 SE8       30.14S
BENTON HARBOR  MOCLDY    56  49  77 SE8       30.10F
BIG RAPIDS     FAIR      55  35  47 CALM      30.12S
COLDWATER      LGT RAIN  52  47  84 E6        30.13F
FREMONT        FAIR      59  43  55 S3        30.11S
HOLLAND        CLOUDY    58  49  72 S8        30.11S
GRAND RAPIDS   CLOUDY    58  48  69 S9        30.12S
IONIA          CLOUDY    58  46  64 S12       30.13S
KALAMAZOO      CLOUDY    56  46  69 S9G17     30.13S
LUDINGTON      FAIR      46  32  58 CALM      30.10S
MARSHALL       CLOUDY    54  44  69 SE8       30.14S
MOUNT PLEASANT FAIR      52  39  62 CALM      30.14R
MUSKEGON       FAIR      57  45  64 S7        30.11S
SOUTH HAVEN    CLOUDY    58  50  73 S8        30.10S
$$
MIZ016>042-240600-
NORTHERN LOWER MICHIGAN

CITY           SKY/WX    TMP DP  RH WIND       PRES   REMARKS
ALPENA         FAIR      36  30  79 CALM      30.16F
BEAVER ISLAND  FAIR      36  29  76 E3        30.14S
CADILLAC       FAIR      41  29  62 CALM      30.11F
CHARLEVOIX     FAIR      42  28  58 CALM      30.16S
FRANKFORT      FAIR      41  30  65 CALM      30.11S
GAYLORD        FAIR      39  28  64 CALM      30.13F
HARBOR SPRINGS FAIR      42  29  60 E7        30.14S
HOUGHTON LAKE  FAIR      47  33  58 E7        30.14S
MANISTEE       FAIR      45  27  49 E7        30.10F
OSCODA         FAIR      38  27  65 CALM      30.15F
PELLSTON       FAIR      34  25  69 CALM      30.16S
ROGERS CITY    FAIR      35  29  81 CALM      30.16F
TRAVERSE CITY  FAIR      38  31  76 CALM      30.11F
$$
MIZ007>008-015-240600-
EASTERN UPPER MICHIGAN

CITY           SKY/WX    TMP DP  RH WIND       PRES   REMARKS
KINROSS        FAIR      40  25  55 CALM      30.16S
MACKINAC ISLAN FAIR      45  26  48 SE8       30.15S
NEWBERRY       FAIR      41  21  45 SE6       30.14S
S. S. MARIE    FAIR      45  24  43 NE5       30.16S
MUNISING         N/A     45  26  47 S8        30.12F
$$
MIZ004>006-011>014-085-240600-
CENTRAL UPPER MICHIGAN

CITY           SKY/WX    TMP DP  RH WIND       PRES   REMARKS
MANISTIQUE     FAIR      34  27  75 CALM      30.14R
ESCANABA       FAIR      31  26  82 W5        30.14F WCI  26
MENOMINEE      FAIR      37  31  78 CALM      30.15
SAWYER-GWINN   FAIR      41  24  49 CALM      30.13S
$$
MIZ001>003-009>011-084-240600-
WESTERN UPPER MICHIGAN

CITY           SKY/WX    TMP DP  RH WIND       PRES   REMARKS
IRON MOUNTAIN  FAIR      39  29  67 CALM      30.11F
HOUGHTON       FAIR      37  27  67 NW3       30.09F
COPPER HARBOR    N/A     44  24  45 W5        30.09S
IRONWOOD       FAIR      37  30  75 CALM      30.12S
$$

ABBREVIATIONS USED IN REMARKS
   TC - TEMPERATURE IN CELSIUS
  WCI - WIND CHILL INDEX
   HX - HEAT INDEX
  VSB - VISIBILITY




USA.gov is the U.S. government's official web portal to all federal, state and local government web resources and services.